{"data":{"norad_id":69406,"epoch":"2026-09-20T04:17:55.624992Z","epoch_age_seconds":62700,"freshness":"FRESH","line1":"1 69406U 26125F   26263.17911603  .00000032  00000+0  31556-4 0  9996","line2":"2 69406  88.9883 270.3463 0002077 102.4931 257.6453 13.51029426 14776","mean_motion":13.51029426,"eccentricity":0.0002077,"inclination_deg":88.9883,"raan_deg":270.3463,"arg_perigee_deg":102.4931,"mean_anomaly_deg":257.6453,"bstar":3.1556e-5,"rev_number":1477,"period_min":106.58539127926,"perigee_km":1066.926795379,"apogee_km":1070.0201173626,"semimajor_km":7446.6104563708,"source":"CELESTRAK","updated_at":"2026-09-20T09:00:24.865864Z"}}